Airfield :
LOGIN :

Register | Disclaimer

   EN    FR    IT 

 










Legend :    VFR   Marginal VFR   IFR   Intensive IFR   Very Intensive IFR
Visi :
Ceiling :
>= 8 km
>= 3000ft
5 to 8 km
1000 to 3000 ft
1500m to 5 km
500 to 1000 ft
800 to 1500m
200 to 500 ft
< 800m
< 200 ft
Symbols :   Thunderstorms  Fog  Heavy snow  Heavy precipitations  Wind > 20 kt
SIGMETs :     Misc.  Thunderstorms  Icing  Turbulence  Mountain Waves  Volcanic Ashes







- Airport Elevation : 751 ft
- IATA code : ENC
- Download approach charts


LFSN - Nancy Essey

CURRENT METAR :
  • 201500Z AUTO 30013KT 260V320 9999 SCT038 BKN044 BKN052 21/13 Q1014

EXPIRED METARs :
  • 201430Z AUTO 29009KT 230V350 9999 FEW037 SCT046 BKN054 23/13 Q1014
  • 201400Z AUTO 26011KT 220V300 9999 FEW046 OVC074 23/12 Q1014
  • 201330Z AUTO 25010KT 220V290 9999 FEW046 OVC072 24/12 Q1014
  • 201300Z AUTO 27009KT 220V320 9999 BKN046 BKN072 23/11 Q1014
  • 201230Z AUTO 25010KT 210V290 9999 SCT047 OVC072 23/11 Q1014

Expired Forecast.
No reported NOTAMs for that airfield.



MET'MAP, your aeronautical weather chart ! - Copyright ORBIFLY December 2007 - Disclaimer

ORBIFLY MET'MAP TEAM :

Programming & Development : Alexandra Zaïnal
Concept & Development : Baudouin d'Aumeries
Co-Development & Prog : Marc-Olivier Méhu
Technical & hardware support : Manuel Goepfert

Contact : metmap@orbifly.com




SOURCES & CREDITS :

   NOAA